Date String (YYYY-MM-DD hh:mm:ss) UTC,Instrument flags,Ambient pressure (hPa),Sample flow (lpm),Bypass flow (lpm),Sample temperature (°C),Ambient temperature (°C),ASC tube jacket temperature (°C),LED temperature (°C),Box temperature (°C),Sample RH (%),Span deviation,Mass concentration (μg/m³),Mass concentration (μg/m³),Mass concentration (μg/m³)
DateTimeUTC,F1_M11,P_M11,Q1_M11,Q2_M11,T1_M11,T2_M11,T3_M11,T4_M11,T5_M11,U1_M11,ZSPAN_M11,X0_M11,X2_M11,X1_M11
2023-02-18 11:00:00,,0822.4,5.04,0.00,22.1,22.3,00.0,30.8,24.1,07.4,0000.0,0001.72,0000.76,0000.50
2023-02-18 11:01:00,,0822.3,5.03,0.00,22.3,23.0,00.0,30.9,24.3,07.0,0000.0,0001.71,0000.75,0000.49
2023-02-18 11:02:00,,0822.4,4.99,0.00,22.3,22.5,00.0,31.0,24.2,06.9,0000.0,0001.70,0000.75,0000.50
2023-02-18 11:03:00,,0822.3,4.98,0.00,22.3,22.0,00.0,31.0,24.1,07.0,0000.0,0001.79,0000.79,0000.51
2023-02-18 11:04:00,,0822.2,5.01,0.00,22.3,21.6,00.0,31.0,24.0,06.8,0000.0,0001.79,0000.79,0000.51
2023-02-18 11:05:00,,0822.2,4.99,0.00,22.2,21.3,00.0,31.1,24.0,06.7,0000.0,0001.74,0000.78,0000.52
2023-02-18 11:06:00,,0822.1,4.99,0.00,22.2,21.1,00.0,31.1,23.9,06.6,0000.0,0001.53,0000.80,0000.53
2023-02-18 11:07:00,,0822.2,5.03,0.00,22.2,21.0,00.0,31.1,23.8,06.5,0000.0,0001.56,0000.82,0000.53
2023-02-18 11:08:00,,0822.2,4.99,0.00,22.2,20.8,00.0,31.1,23.8,06.4,0000.0,0001.57,0000.85,0000.52
2023-02-18 11:09:00,,0822.1,4.98,0.00,22.2,20.7,00.0,31.1,23.8,06.7,0000.0,0001.58,0000.87,0000.52
2023-02-18 11:10:00,,0822.1,5.01,0.00,22.1,20.6,00.0,31.1,23.7,06.4,0000.0,0001.59,0000.87,0000.52
2023-02-18 11:11:00,,0822.1,5.02,0.00,22.1,20.6,00.0,31.0,23.7,06.4,0000.0,0001.53,0000.86,0000.52
2023-02-18 11:12:00,,0822.1,4.96,0.00,22.1,20.5,00.0,31.0,23.6,06.5,0000.0,0001.51,0000.86,0000.52
2023-02-18 11:13:00,,0822.1,5.00,0.00,22.0,20.4,00.0,31.0,23.6,06.6,0000.0,0001.45,0000.83,0000.51
2023-02-18 11:14:00,,0822.2,4.99,0.00,22.0,20.3,00.0,31.0,23.6,06.6,0000.0,0001.34,0000.78,0000.51
2023-02-18 11:15:00,,0822.2,5.00,0.00,22.0,20.3,00.0,31.0,23.6,06.7,0000.0,0001.41,0000.80,0000.50
2023-02-18 11:16:00,,0822.2,4.99,0.00,22.0,21.1,00.0,30.9,23.8,06.7,0000.0,0001.58,0000.81,0000.50
2023-02-18 11:17:00,,0822.2,4.96,0.00,22.2,22.3,00.0,30.9,24.1,07.0,0000.0,0001.54,0000.80,0000.50
2023-02-18 11:18:00,,0822.1,5.06,0.00,22.3,23.1,00.0,30.9,24.3,06.6,0000.0,0001.61,0000.83,0000.50
2023-02-18 11:19:00,,0822.1,5.00,0.00,22.3,22.6,00.0,31.0,24.3,06.8,0000.0,0001.65,0000.82,0000.51
2023-02-18 11:20:00,,0822.2,4.99,0.00,22.3,22.1,00.0,31.0,24.2,07.1,0000.0,0001.70,0000.80,0000.51
2023-02-18 11:21:00,,0822.1,5.02,0.00,22.3,21.6,00.0,31.1,24.0,06.7,0000.0,0001.75,0000.82,0000.51
2023-02-18 11:22:00,,0822.1,4.99,0.00,22.3,21.3,00.0,31.1,23.9,06.5,0000.0,0001.71,0000.80,0000.52
2023-02-18 11:23:00,,0822.2,5.00,0.00,22.3,21.1,00.0,31.1,23.9,06.5,0000.0,0001.77,0000.82,0000.53
2023-02-18 11:24:00,,0822.1,4.99,0.00,22.2,20.9,00.0,31.1,23.9,06.8,0000.0,0001.82,0000.84,0000.53
2023-02-18 11:25:00,,0822.1,5.02,0.00,22.2,20.9,00.0,31.1,23.8,06.3,0000.0,0001.90,0000.88,0000.53
2023-02-18 11:26:00,,0822.2,5.00,0.00,22.2,20.7,00.0,31.1,23.8,06.2,0000.0,0001.82,0000.88,0000.54
2023-02-18 11:27:00,,0822.1,5.01,0.00,22.1,20.6,00.0,31.1,23.7,06.5,0000.0,0001.66,0000.86,0000.54
2023-02-18 11:28:00,,0822.1,5.01,0.00,22.1,20.5,00.0,31.1,23.7,06.8,0000.0,0001.67,0000.86,0000.54
2023-02-18 11:29:00,,0822.1,5.01,0.00,22.1,20.4,00.0,31.1,23.7,06.9,0000.0,0001.52,0000.81,0000.53
2023-02-18 11:30:00,,0822.0,4.99,0.00,22.1,20.4,00.0,31.1,23.7,06.9,0000.0,0001.51,0000.82,0000.53
2023-02-18 11:31:00,,0821.9,5.00,0.00,22.0,20.3,00.0,31.0,23.7,07.0,0000.0,0001.70,0000.84,0000.53
2023-02-18 11:32:00,,0821.9,5.00,0.00,22.0,20.6,00.0,31.0,23.7,06.3,0000.0,0001.97,0000.84,0000.53
2023-02-18 11:33:00,,0821.9,5.02,0.00,22.1,21.8,00.0,30.9,24.0,06.7,0000.0,0001.99,0000.84,0000.53
2023-02-18 11:34:00,,0821.8,5.06,0.00,22.3,22.9,00.0,30.9,24.3,06.4,0000.0,0002.28,0000.81,0000.52
2023-02-18 11:35:00,,0821.8,5.01,0.00,22.4,23.0,00.0,31.0,24.4,06.6,0000.0,0002.58,0000.82,0000.52
2023-02-18 11:36:00,,0821.8,4.96,0.00,22.4,22.4,00.0,31.1,24.3,06.4,0000.0,0002.51,0000.80,0000.52
2023-02-18 11:37:00,,0821.9,4.99,0.00,22.4,21.9,00.0,31.1,24.2,06.6,0000.0,0002.48,0000.79,0000.51
2023-02-18 11:38:00,,0821.9,5.01,0.00,22.4,21.5,00.0,31.1,24.1,06.9,0000.0,0002.47,0000.79,0000.51
2023-02-18 11:39:00,,0821.8,5.00,0.00,22.3,21.2,00.0,31.2,24.0,06.9,0000.0,0002.48,0000.80,0000.51
2023-02-18 11:40:00,,0821.8,5.02,0.00,22.3,20.9,00.0,31.2,24.0,06.7,0000.0,0002.56,0000.83,0000.51
2023-02-18 11:41:00,,0821.8,5.01,0.00,22.3,20.7,00.0,31.2,23.9,06.3,0000.0,0002.58,0000.81,0000.52
2023-02-18 11:42:00,,0821.8,5.00,0.00,22.2,20.7,00.0,31.2,23.8,06.8,0000.0,0002.43,0000.80,0000.52
2023-02-18 11:43:00,,0821.7,5.01,0.00,22.2,20.6,00.0,31.1,23.8,07.0,0000.0,0002.13,0000.81,0000.52
2023-02-18 11:44:00,,0821.7,5.02,0.00,22.2,20.5,00.0,31.1,23.8,06.7,0000.0,0002.23,0000.81,0000.52
2023-02-18 11:45:00,,0821.7,5.00,0.00,22.1,20.4,00.0,31.1,23.7,06.6,0000.0,0002.04,0000.84,0000.53
2023-02-18 11:46:00,,0821.7,4.99,0.00,22.1,20.4,00.0,31.1,23.7,06.8,0000.0,0001.83,0000.87,0000.53
2023-02-18 11:47:00,,0821.7,5.00,0.00,22.1,20.3,00.0,31.1,23.6,06.8,0000.0,0001.97,0000.91,0000.52
2023-02-18 11:48:00,,0821.8,5.01,0.00,22.0,20.3,00.0,31.1,23.6,06.6,0000.0,0002.70,0000.88,0000.52
2023-02-18 11:49:00,,0821.8,5.01,0.00,22.0,20.2,00.0,31.0,23.6,06.2,0000.0,0002.86,0000.90,0000.52
2023-02-18 11:50:00,,0821.8,5.01,0.00,22.0,20.9,00.0,31.0,23.8,06.3,0000.0,0003.02,0000.96,0000.52
2023-02-18 11:51:00,,0821.8,4.98,0.00,22.2,22.3,00.0,30.9,24.1,06.0,0000.0,0003.55,0000.96,0000.52
2023-02-18 11:52:00,,0821.7,4.97,0.00,22.3,23.2,00.0,30.9,24.4,06.5,0000.0,0003.72,0000.98,0000.52
2023-02-18 11:53:00,,0821.8,5.00,0.00,22.4,22.8,00.0,31.0,24.3,06.4,0000.0,0003.62,0000.98,0000.51
2023-02-18 11:54:00,,0821.8,5.02,0.00,22.4,22.2,00.0,31.1,24.2,06.1,0000.0,0003.52,0000.95,0000.52
2023-02-18 11:55:00,,0821.7,5.01,0.00,22.3,21.8,00.0,31.1,24.1,06.1,0000.0,0003.43,0000.96,0000.52
2023-02-18 11:56:00,,0821.7,5.01,0.00,22.3,21.4,00.0,31.1,24.0,06.1,0000.0,0003.43,0000.96,0000.51
2023-02-18 11:57:00,,0821.6,4.99,0.00,22.3,21.2,00.0,31.1,23.9,06.2,0000.0,0003.36,0000.95,0000.52
2023-02-18 11:58:00,,0821.7,5.01,0.00,22.3,21.0,00.0,31.1,23.9,06.2,0000.0,0003.45,0000.93,0000.52
2023-02-18 11:59:00,,0821.7,5.00,0.00,22.2,20.8,00.0,31.1,23.8,06.5,0000.0,0003.38,0000.92,0000.52
